{"data":{"norad_id":65762,"intl_designator":"2025-217A","name":"KUIPER-00120","alt_names":[],"object_type":"PAYLOAD","status":"ACTIVE","operator":null,"country":"US","launch_date":"2025-09-25","launch_site_code":"AFETR","launch_vehicle":null,"mission":null,"orbit_class":"UNKNOWN","rcs_meters":null,"size_class":null,"mass_kg":null,"dimensions":null,"purposes":[],"wikipedia_slug":null,"has_3d_model":false,"image_url":null,"decayed_at":null,"tle_current":{"epoch":"2026-05-25T04:24:39.383424Z","epoch_age_seconds":56477,"freshness":"FRESH","line1":"1 65762U 25217A   26145.18378916  .00003560  00000+0  49567-3 0  9991","line2":"2 65762  51.8991  74.8028 0000725  90.0711 270.0335 14.79940952 36067","mean_motion":14.79940952,"eccentricity":7.25e-5,"inclination_deg":51.8991,"raan_deg":74.8028,"arg_perigee_deg":90.0711,"mean_anomaly_deg":270.0335,"bstar":0.00049567,"rev_number":3606,"period_min":97.301179351377,"perigee_km":629.00247234821,"apogee_km":630.0185812396,"semimajor_km":7007.6475267939,"source":"CELESTRAK","updated_at":"2026-05-25T13:38:05.657956Z"}}}